Regional Weather Roundup
Issued by NWS

Home | Current Version | Previous Version | Graphics & Text | Print | Product List | Glossary On
Versions: 1 2 3 4 5 6 7 8 9 10 11 12 13 14 15 16 17 18 19 20 21 22 23 24 25 26 27 28 29 30 31 32 33 34 35 36 37 38 39 40 41 42 43 44 45 46 47 48 49 50
000
ASUS43 KIND 280759
RWRIN

WEATHER ROUNDUP FOR INDIANA
NATIONAL WEATHER SERVICE INDIANAPOLIS IN
400 AM EDT THU APR 28 2016

NOTE: "FAIR" INDICATES FEW OR NO CLOUDS BELOW 12,000 FEET WITH NO
SIGNIFICANT WEATHER AND/OR OBSTRUCTIONS TO VISIBILITY.

* - STATION DOES NOT REPORT WEATHER SUCH AS PRECIPITATION OR FOG.

+ - STATION NOT QUALITY CONTROLLED BY THE NATIONAL WEATHER SERVICE.
    USE DATA WITH CAUTION...ESPECIALLY DEWPOINT AND RELATIVE
    HUMIDITY OBSERVATIONS.

INZ001>003-010>013-019-020-280900-
NORTHWEST INDIANA

CITY           SKY/WX    TMP DP  RH WIND       PRES   REMARKS
RENSSELAER +   CLOUDY    46  45  93 E16       29.78F

$$

LMZ046-743>745-280900-
SOUTHERN LAKE MICHIGAN

STATION/POSITION TIME  TEMP    WIND        PRES    WAVE
                       AIR SEA DIR/SP/G            HT
                 (UTC) (F)     (DEG/KT/KT) (MB)    (FT)
BURNS HARBOR     0705   48     110/ 10/ 24 1009.5S
MICHIGAN CITY    0700   49      90/ 13/ 16   N/A

$$

INZ004-005-014>016-021>024-280900-
NORTH CENTRAL INDIANA

CITY           SKY/WX    TMP DP  RH WIND       PRES   REMARKS
GOSHEN         LGT RAIN  45  40  82 NE8       29.85R
SOUTH BEND     LGT RAIN  46  39  76 E13G23    29.84S

$$

INZ006>009-017-018-025>027-280900-
NORTHEAST INDIANA

CITY           SKY/WX    TMP DP  RH WIND       PRES   REMARKS
ANGOLA *+      CLOUDY    43  27  52 E13       29.87F
FORT WAYNE     LGT RAIN  43  40  89 E18       29.84F

$$

INZ028-029-035-036-043>045-051>053-280900-
WEST CENTRAL INDIANA

CITY           SKY/WX    TMP DP  RH WIND       PRES   REMARKS
CRAWFORDSVL +  CLOUDY    55  55 100 NE6       29.75R FOG
GREENCASTLE +  CLOUDY    59  59 100 E3        29.75R FOG
LAFAYETTE      CLOUDY    46  43  89 E14       29.77F
TERRE HAUTE    CLOUDY    62  60  93 E9        29.73F

$$

INZ030>032-037>040-046>048-054>057-064-065-280900-
CENTRAL INDIANA

CITY           SKY/WX    TMP DP  RH WIND       PRES   REMARKS
INDIANAPOLIS   CLOUDY    57  55  93 E8        29.74F FOG
-EAGLE CREEK   CLOUDY    57  55  93 SE6       29.74F FOG
KOKOMO *+      CLOUDY    45  39  81 E13       29.81R
SHELBYVILLE    LGT RAIN  60  58  92 E6        29.75F

$$

INZ033-034-041-042-049-050-058-059-280900-
EAST CENTRAL INDIANA

CITY           SKY/WX    TMP DP  RH WIND       PRES   REMARKS
MUNCIE         CLOUDY    47  43  86 E8        29.81F

$$

INZ060-061-067>069-081>083-085>088-280900-
SOUTHWEST INDIANA

CITY           SKY/WX    TMP DP  RH WIND       PRES   REMARKS
EVANSVILLE     CLOUDY    61  60  97 SE5       29.72F
HUNTINGBURG *+ CLOUDY    63  57  82 SE6       29.74S

$$

INZ062-063-066-070>080-084-089>092-280900-
SOUTH CENTRAL AND SOUTHEAST INDIANA

CITY           SKY/WX    TMP DP  RH WIND       PRES   REMARKS
BLOOMINGTON    CLOUDY    62  59  90 SE7       29.74S
MADISON *+     PTCLDY    61  59  94 SE6       29.78F
SEYMOUR +      CLOUDY    63  63 100 CALM      29.75F

$$





USA.gov is the U.S. government's official web portal to all federal, state and local government web resources and services.